Terminal Aerodrome Forecast
Issued by NWS Houston/Galveston, TX

Current Version | Previous Version | Text Only | Print | Product List | Glossary Off
Versions: 1 2 3 4 5 6 7 8 9 10 11 12 13 14 15 16 17 18 19 20 21 22 23 24 25 26 27 28 29 30 31 32 33

000
FTUS44 KHGX 252337
TAFCLL
TAF
KCLL 252337Z 2600/2624 16006KT P6SM FEW040 FEW250
     FM261500 20007KT P6SM SCT250
     FM261900 18010KT P6SM FEW050=

USA.gov is the U.S. government's official web portal to all federal, state and local government web resources and services.